{"data":{"norad_id":59569,"intl_designator":"2024-076F","name":"STARLINK-31470","alt_names":[],"object_type":"PAYLOAD","status":"ACTIVE","operator":null,"country":"US","launch_date":"2024-04-23","launch_site_code":"AFETR","launch_vehicle":null,"mission":null,"orbit_class":"UNKNOWN","rcs_meters":null,"size_class":null,"mass_kg":null,"dimensions":null,"purposes":["comms"],"wikipedia_slug":null,"has_3d_model":false,"image_url":null,"decayed_at":null,"tle_current":{"epoch":"2026-09-21T06:30:02.813760Z","epoch_age_seconds":101613,"freshness":"FRESH","line1":"1 59569U 24076F   26264.27086590  .00000488  00000+0  27248-4 0  9996","line2":"2 59569  43.0041 341.0589 0001222 267.6590  92.4122 15.27576010136363","mean_motion":15.2757601,"eccentricity":0.0001222,"inclination_deg":43.0041,"raan_deg":341.0589,"arg_perigee_deg":267.659,"mean_anomaly_deg":92.4122,"bstar":2.7248e-5,"rev_number":13636,"period_min":94.266994936638,"perigee_km":482.22260516013,"apogee_km":483.89948196198,"semimajor_km":6861.1980435611,"source":"CELESTRAK","updated_at":"2026-09-22T09:00:49.001306Z"}}}